Location: Tamazert
(32.6352°N, 5.2072°W)
Time: 00:19:50
(UTC+00:00)

Altair - Pass Details

Date: 03 October 2022
Orbit: 1501 x 1682 km, 47.2° (Epoch: 05 December)

Event Time Altitude Azimuth Distance (km) Brightness Sun altitude
Exits shadow 04:31:49 28° 228° (SW) 2,638 8.2 -22.7°
Maximum altitude 04:37:44 87° 140° (SE) 1,617 7.5 -21.5°
Drops below altitude 10° 04:47:45 10° 53° (NE) 3,903 10.5 -19.4°
Sets 04:50:56 0° 53° (NE) 4,908 11.2 -18.7°
